Flag for U.S.A. Weather past 2 weeks in Everett, Washington, U.S.A.

Now
55 °F

Clear.


Feels Like: 54 °F
Forecast: 54 / 71 °F
Wind: 6 mph from North

Location: Snohomish County Airport

Current Time: May 30, 2015 at 12:40:50 AM

Latest Report: May 29, 2015 at 11:53 PM


Visibility: 10 mi

Pressure: 29.92 "Hg

Humidity: 77%

Dew point: 48 °F

Location of EverettLocation

Historic Weather in Everett — Graph

°F

Everett temperature yesterday

Maximum temperature yesterday: 72 °F (at 1:53 PM)
Minimum temperature yesterday: 56 °F (at 5:53 AM)
Average temperature yesterday: 63 °F

Past Weeks' High & Low Weather Summary

 TemperatureHumidityPressure
High73 °F (May 28, 2:53 PM)100% (May 20, 3:53 AM)30.19 "Hg (May 20, 3:53 AM)
Low49 °F (May 15, 2:53 AM)47% (May 29, 6:53 PM)29.83 "Hg (May 21, 2:53 PM)
Average58 °F77%30.02 "Hg
* Reported May 14 10:53 PM — May 29 10:53 PM, Everett, Weather by CustomWeather, © 2015

Note: Actual official high and low records may vary slightly from our data, if they occured in-between our weather recording intervals... More about our weather records

Advertising

Everett weather history for previous 24 hours

 ConditionsComfort  
Time TempWeatherWind HumidityBarometerVisibility
10:53 PM
Fri, May 29
56 °FClear.5 mph72%29.93 "Hg10 mi
9:53 PM58 °FSunny.8 mph65%29.92 "Hg10 mi
8:53 PM58 °FSunny.9 mph70%29.91 "Hg10 mi
7:53 PM61 °FSunny.9 mph62%29.91 "Hg10 mi
6:53 PM67 °FSunny.9 mph47%29.90 "Hg10 mi
5:53 PM69 °FSunny.10 mph49%29.91 "Hg10 mi
4:53 PM71 °FSunny.7 mph49%29.91 "Hg10 mi
3:53 PM72 °FSunny.6 mph53%29.92 "Hg10 mi
2:53 PM72 °FSunny.6 mph55%29.93 "Hg10 mi
1:53 PM72 °FSunny.7 mph55%29.95 "Hg10 mi
12:53 PM70 °FSunny.7 mph59%29.96 "Hg10 mi
11:53 AM68 °FSunny.7 mph63%29.98 "Hg10 mi
10:53 AM67 °FSunny.5 mph63%29.98 "Hg10 mi
9:53 AM66 °FSunny.No wind63%29.99 "Hg10 mi
8:53 AM63 °FSunny.3 mph73%29.99 "Hg10 mi
7:53 AM62 °FSunny.3 mph67%30.00 "Hg10 mi
6:53 AM59 °FSunny.No wind78%30.00 "Hg10 mi
5:53 AM56 °FClear.3 mph75%29.99 "Hg10 mi
4:53 AM58 °FClear.No wind67%29.99 "Hg10 mi
3:53 AM58 °FClear.3 mph70%29.99 "Hg10 mi
2:53 AM58 °FClear.No wind78%30.00 "Hg10 mi
1:53 AM58 °FClear.6 mph84%29.99 "Hg10 mi
12:53 AM58 °FClear.5 mph81%30.00 "Hg10 mi
Weather by CustomWeather, © 2015

See weather overviewHow to use our weather pages